Retour au catalogue

CZ-6A DEB

ActifPO
NORAD 61295·DEBRIS·🇨🇳 China

Lancé Aug 6, 2024 depuis Taiyuan Satellite Launch Center

Loading…

Prochains Passages (prochaines 24 heures)

TLE

FraisSource: Space-Track

Époque: Sep 14, 2026, 11:46 UTC

1 61295U 24140TG  26257.49092781  .00000465  00000-0  21026-3 0  9995
2 61295  89.0072 265.7383 0046094 246.5049 113.1294 14.19920077105959

Suivez CZ-6A DEB en temps réel avec AllMySat

Download on the App Store